DW8039 Weather Reports


time (UTC)temp
C
wind
direction
speed
KPH
gust
KPH
rain 1hr
cm
rain 24hr
cm
rain mn
cm
humidity
%
barometer
mb
20260510190404 12 57 4.8 8.0 0.00 0.00 0.00 63 1014.7
20260510185904 12 61 8.0 19.3 0.00 0.00 0.00 63 1014.8
20260510185403 12 37 6.4 20.9 0.00 0.00 0.00 63 1014.7
20260510183903 12 56 8.0 19.3 0.00 0.00 0.00 64 1014.8
20260510182904 12 17 11.3 19.3 0.00 0.00 0.00 64 1014.9
20260510182403 13 30 8.0 19.3 0.00 0.00 0.00 64 1014.9
20260510180404 13 15 6.4 16.1 0.00 0.00 0.00 64 1014.8
20260510175904 13 42 9.7 19.3 0.00 0.00 0.00 63 1014.9
20260510173404 13 29 11.3 19.3 0.00 0.00 0.00 62 1014.7
20260510172904 14 26 8.0 22.5 0.00 0.00 0.00 62 1014.7
20260510172403 14 25 8.0 24.1 0.00 0.00 0.00 62 1014.7
20260510170904 15 29 8.0 19.3 0.00 0.00 0.00 60 1014.5
20260510170404 15 23 11.3 27.4 0.00 0.00 0.00 60 1014.5
20260510165904 15 27 9.7 19.3 0.00 0.00 0.00 61 1014.5
20260510165404 15 53 14.5 25.7 0.00 0.00 0.00 59 1014.5
20260510163904 15 19 11.3 20.9 0.00 0.00 0.00 59 1014.5
20260510162903 15 63 9.7 24.1 0.00 0.00 0.00 60 1014.5
20260510162403 15 45 8.0 27.4 0.00 0.00 0.00 59 1014.5
20260510160404 15 44 16.1 27.4 0.00 0.00 0.00 58 1014.5
20260510155904 15 21 11.3 25.7 0.00 0.00 0.00 58 1014.3
20260510155403 16 37 16.1 29.0 0.00 0.00 0.00 57 1014.3
20260510153904 16 49 12.9 29.0 0.00 0.00 0.00 58 1014.4
20260510153404 16 27 16.1 32.2 0.00 0.00 0.00 55 1014.5
20260510152904 16 37 11.3 22.5 0.00 0.00 0.00 55 1014.4
20260510152404 16 47 9.7 33.8 0.00 0.00 0.00 55 1014.5
20260510145403 16 51 11.3 25.7 0.00 0.00 0.00 58 1014.8
20260510143404 16 40 16.1 25.7 0.00 0.00 0.00 56 1014.9
20260510142903 16 43 11.3 24.1 0.00 0.00 0.00 54 1014.9
20260510142403 16 21 14.5 33.8 0.00 0.00 0.00 55 1014.9
20260510140904 16 20 16.1 24.1 0.00 0.00 0.00 54 1015.0
20260510140404 17 32 8.0 20.9 0.00 0.00 0.00 53 1015.1
20260510135903 17 49 8.0 20.9 0.00 0.00 0.00 50 1015.1
20260510135404 17 47 9.7 27.4 0.00 0.00 0.00 50 1015.1
20260510133403 17 50 9.7 24.1 0.00 0.00 0.00 51 1015.2
20260510132904 17 39 8.0 25.7 0.00 0.00 0.00 51 1015.2
20260510132404 17 26 9.7 29.0 0.00 0.00 0.00 50 1015.2
20260510130904 17 25 14.5 33.8 0.00 0.00 0.00 50 1015.2
20260510130404 17 28 9.7 20.9 0.00 0.00 0.00 50 1015.2
20260510125904 17 27 11.3 24.1 0.00 0.00 0.00 48 1015.3
20260510125403 17 55 8.0 27.4 0.00 0.00 0.00 51 1015.2
20260510123403 17 50 9.7 24.1 0.00 0.00 0.00 50 1015.5
20260510122903 17 67 9.7 19.3 0.00 0.00 0.00 51 1015.6
20260510122404 16 48 9.7 25.7 0.00 0.00 0.00 51 1015.6
20260510120903 17 53 9.7 24.1 0.00 0.00 0.00 50 1015.7
20260510120404 17 46 11.3 25.7 0.00 0.00 0.00 53 1015.8
20260510115904 16 46 11.3 25.7 0.00 0.00 0.00 51 1015.8
20260510113903 16 52 11.3 27.4 0.00 0.00 0.00 52 1016.0
20260510112903 16 53 8.0 27.4 0.00 0.00 0.00 54 1016.1
20260510112404 16 58 9.7 25.7 0.00 0.00 0.00 53 1016.1
20260510110904 16 87 8.0 27.4 0.00 0.00 0.00 54 1016.2
20260510110404 16 43 8.0 29.0 0.00 0.00 0.00 54 1016.2
20260510105903 16 66 9.7 32.2 0.00 0.00 0.00 52 1016.2
20260510103903 16 43 14.5 29.0 0.00 0.00 0.00 54 1016.2
20260510103404 16 53 4.8 25.7 0.00 0.00 0.00 55 1016.1
20260510102905 16 51 11.3 25.7 0.00 0.00 0.00 55 1016.2
20260510102403 15 37 11.3 33.8 0.00 0.00 0.00 55 1016.3
20260510100904 15 67 8.0 22.5 0.00 0.00 0.00 54 1016.4
20260510100403 16 23 8.0 29.0 0.00 0.00 0.00 54 1016.4
20260510095404 15 20 12.9 32.2 0.00 0.00 0.00 53 1016.5
20260510093904 15 60 11.3 22.5 0.00 0.00 0.00 55 1016.7
20260510093404 15 34 9.7 22.5 0.00 0.00 0.00 56 1016.6
20260510092904 15 15 6.4 14.5 0.00 0.00 0.00 58 1016.6
20260510092404 15 25 3.2 32.2 0.00 0.00 0.00 60 1016.6
20260510090904 14 18 9.7 20.9 0.00 0.00 0.00 59 1016.6
20260510090404 15 37 4.8 16.1 0.00 0.00 0.00 60 1016.5
20260510085904 14 30 3.2 16.1 0.00 0.00 0.00 58 1016.6
20260510085404 15 51 8.0 29.0 0.00 0.00 0.00 58 1016.5
20260510083904 14 0 4.8 27.4 0.00 0.00 0.00 59 1016.6
20260510083404 14 29 8.0 29.0 0.00 0.00 0.00 59 1016.4
20260510082903 13 39 11.3 24.1 0.00 0.00 0.00 59 1016.3
20260510082404 13 35 11.3 32.2 0.00 0.00 0.00 59 1016.2
20260510080904 13 32 11.3 32.2 0.00 0.00 0.00 60 1015.9
20260510080404 13 66 11.3 24.1 0.00 0.00 0.00 61 1016.1
20260510075903 13 37 12.9 32.2 0.00 0.00 0.00 63 1016.0
20260510073904 12 27 14.5 25.7 0.00 0.00 0.00 64 1015.9
20260510073403 12 49 9.7 29.0 0.00 0.00 0.00 66 1016.0
20260510072904 12 49 9.7 27.4 0.00 0.00 0.00 65 1016.0
20260510072405 12 41 17.7 40.2 0.00 0.00 0.00 66 1015.9
20260510070904 12 29 17.7 27.4 0.00 0.00 0.00 66 1015.8
20260510065904 11 38 19.3 41.8 0.00 0.00 0.00 67 1015.8
20260510065403 11 43 19.3 38.6 0.00 0.00 0.00 68 1015.8
20260510063404 10 53 11.3 24.1 0.00 0.00 0.00 71 1015.7
20260510062404 10 36 16.1 33.8 0.00 0.00 0.00 72 1015.6
20260510060404 10 42 12.9 27.4 0.00 0.00 0.00 73 1015.6
20260510055904 10 39 16.1 27.4 0.00 0.00 0.00 73 1015.5
20260510055404 10 37 12.9 29.0 0.00 0.00 0.00 73 1015.6
20260510053904 10 38 12.9 27.4 0.00 0.00 0.00 72 1015.6
20260510052903 10 45 12.9 32.2 0.00 0.00 0.00 70 1015.5
20260510052404 10 45 14.5 38.6 0.00 0.00 0.00 70 1015.7
20260510050904 10 29 14.5 27.4 0.00 0.00 0.00 69 1015.7
20260510050403 10 35 12.9 25.7 0.00 0.00 0.00 68 1015.6
20260510045404 11 22 9.7 25.7 0.00 0.00 0.00 68 1015.6
20260510043903 11 52 14.5 29.0 0.00 0.00 0.00 65 1015.6
20260510043404 11 53 14.5 29.0 0.00 0.00 0.00 65 1015.5
20260510042904 11 41 11.3 24.1 0.00 0.00 0.00 65 1015.5
20260510042404 11 49 9.7 33.8 0.00 0.00 0.00 65 1015.5
20260510040403 12 44 9.7 22.5 0.00 0.00 0.00 65 1015.5
20260510035904 12 38 11.3 20.9 0.00 0.00 0.00 65 1015.6
20260510035403 12 38 9.7 24.1 0.00 0.00 0.00 65 1015.6
20260510033904 12 25 9.7 22.5 0.00 0.00 0.00 66 1015.7
20260510033404 12 45 11.3 25.7 0.00 0.00 0.00 66 1015.7
20260510032903 12 34 8.0 14.5 0.00 0.00 0.00 66 1015.7
20260510032403 12 39 9.7 22.5 0.00 0.00 0.00 67 1015.8
20260510030905 12 32 11.3 25.7 0.00 0.00 0.00 67 1015.8
20260510030403 13 25 9.7 19.3 0.00 0.00 0.00 66 1015.8
20260510025404 13 21 8.0 24.1 0.00 0.00 0.00 64 1015.8
20260510023904 13 357 8.0 14.5 0.00 0.00 0.00 60 1015.6
20260510022904 13 58 6.4 16.1 0.00 0.00 0.00 61 1015.8
20260510020904 13 45 4.8 19.3 0.00 0.00 0.00 63 1015.8
20260510020404 13 41 6.4 16.1 0.00 0.00 0.00 63 1015.8
20260510015904 13 53 11.3 22.5 0.00 0.00 0.00 63 1015.8
20260510015404 13 46 11.3 27.4 0.00 0.00 0.00 63 1015.8
20260510013904 13 51 4.8 16.1 0.00 0.00 0.00 65 1015.9
20260510013404 13 67 6.4 14.5 0.00 0.00 0.00 65 1016.0
20260510012403 13 38 6.4 19.3 0.00 0.00 0.00 66 1016.1
20260510010904 13 53 6.4 19.3 0.00 0.00 0.00 67 1016.3
20260510010404 14 51 4.8 16.1 0.00 0.00 0.00 68 1016.3
20260510005904 14 76 6.4 16.1 0.00 0.00 0.00 68 1016.3
20260510005404 14 69 8.0 19.3 0.00 0.00 0.00 67 1016.3
20260510003903 14 44 6.4 14.5 0.00 0.00 0.00 68 1016.3
20260510003404 14 51 8.0 19.3 0.00 0.00 0.00 68 1016.3
20260510002903 15 44 9.7 29.0 0.00 0.00 0.00 67 1016.4
20260510002403 15 49 11.3 24.1 0.00 0.00 0.00 68 1016.3
20260509235904 14 42 8.0 22.5 0.00 0.00 0.00 69 1016.3
20260509235403 14 27 8.0 22.5 0.00 0.00 0.00 69 1016.3
20260509233403 15 32 11.3 24.1 0.00 0.00 0.00 68 1016.2
20260509232904 15 28 11.3 25.7 0.00 0.00 0.00 68 1016.2
20260509232403 15 31 11.3 25.7 0.00 0.00 0.00 68 1016.1
20260509230904 15 16 9.7 27.4 0.00 0.00 0.00 67 1016.3
20260509225904 15 24 8.0 19.3 0.00 0.00 0.00 66 1016.3
20260509223904 15 15 9.7 16.1 0.00 0.00 0.00 64 1016.3
20260509223403 15 29 11.3 24.1 0.00 0.00 0.00 64 1016.4
20260509222904 16 31 8.0 19.3 0.00 0.00 0.00 63 1016.4
20260509222403 16 31 9.7 22.5 0.00 0.00 0.00 62 1016.3
20260509220904 16 22 11.3 25.7 0.00 0.00 0.00 61 1016.5
20260509220404 16 35 11.3 22.5 0.00 0.00 0.00 61 1016.5
20260509213903 16 21 8.0 14.5 0.00 0.00 0.00 63 1016.5
20260509213404 15 14 8.0 16.1 0.00 0.00 0.00 63 1016.5
20260509212903 15 26 6.4 14.5 0.00 0.00 0.00 63 1016.5
20260509212403 15 9 4.8 20.9 0.00 0.00 0.00 63 1016.5
20260509210903 15 29 8.0 11.3 0.00 0.00 0.00 63 1016.3
20260509210404 16 20 8.0 14.5 0.00 0.00 0.00 63 1016.3
20260509205404 16 20 8.0 19.3 0.00 0.00 0.00 62 1016.3
20260509203903 16 29 8.0 19.3 0.00 0.00 0.00 63 1016.3
20260509203404 16 42 9.7 19.3 0.00 0.00 0.00 62 1016.3
20260509202904 16 21 6.4 16.1 0.00 0.00 0.00 63 1016.3
20260509200904 16 18 6.4 14.5 0.00 0.00 0.00 63 1016.1
20260509200403 16 6 6.4 12.9 0.00 0.00 0.00 62 1016.0
20260509195903 16 29 8.0 16.1 0.00 0.00 0.00 63 1016.0
20260509193904 17 15 3.2 11.3 0.00 0.00 0.00 62 1016.0
20260509193404 17 28 3.2 4.8 0.00 0.00 0.00 62 1016.0
20260509192903 17 65 0.0 0.0 0.00 0.00 0.00 61 1016.1
20260509192404 17 65 0.0 0.0 0.00 0.00 0.00 61 1016.1
20260509190904 17 67 0.0 0.0 0.00 0.00 0.00 60 1016.1